Kelowna, British Columbia

4:15 AM PDT on May 20, 2018 (GMT -0700)
Kelowna

Weather History for CYLW - October, 2012

Change the Weather History Date:

Monday, October 15, 2012

  Actual Average Record
Temperature  
Mean Temperature 54 °F -  
Max Temperature 66 °F 46 °F 66 °F (2012)
Min Temperature 43 °F 29 °F 23 °F (2008)
Degree Days  
Heating Degree Days 10    
Growing Degree Days 4 (Base 50)    
Moisture  
Dew Point 48 °F    
Average Humidity 73    
Maximum Humidity 93    
Minimum Humidity 47    
Precipitation  
Precipitation 0.08 in 0.03 in - ()
Sea Level Pressure  
Sea Level Pressure 29.66 in    
Wind  
Wind Speed 5 mph ()    
Max Wind Speed 22 mph    
Max Gust Speed 30 mph    
Visibility 8.9 miles    
Events Rain    
Averages and records for this station are not official NWS values.
T = Trace of Precipitation, MM = Missing Value Source: Averaged Metar Reports

Daily Weather History Graph

Daily Weather History Graph

Search for Another Location

Airport or City:

Astronomy

Oct. 15, 2012 Rise Set
Actual Time 7:20 AM PDT 6:05 PM PDT
Civil Twilight 6:47 AM PDT 6:37 PM PDT
Nautical Twilight 6:10 AM PDT 7:15 PM PDT
Astronomical Twilight 5:32 AM PDT 7:52 PM PDT
Moon 7:43 AM PDT (10/15) 5:59 PM PDT (10/15)
Length of Visible Light 11h 49m
Length of Day
10h 44m
New Moon, 0% of the Moon is Illuminated
Oct 15
New Moon
Oct 21
First Quarter
Oct 29
Full
Nov 6
Last Quarter
Nov 13
New

Hourly Weather History & Observations

Time (PDT) Temp. Dew Point Humidity Pressure Visibility Wind Dir Wind Speed Gust Speed Precip Events Conditions
12:00 AM 53.6 °F 50.0 °F 88% 29.78 in 9.0 mi Variable 2.3 mph - N/A   Overcast
1:00 AM 57.2 °F 51.8 °F 82% 29.77 in 9.0 mi East 3.5 mph - N/A   Overcast
2:00 AM 55.4 °F 50.0 °F 82% 29.78 in 9.0 mi Variable 2.3 mph - N/A   Overcast
3:00 AM 53.6 °F 50.0 °F 88% 29.79 in 9.0 mi South 3.5 mph - N/A   Overcast
4:00 AM 51.8 °F 48.2 °F 88% 29.80 in 9.0 mi Variable 2.3 mph - N/A   Unknown
5:00 AM 51 °F 48 °F 86% 29.80 in 10 mi West 2.3 mph - -  
5:00 AM 51.8 °F 48.2 °F 88% 29.80 in 9.0 mi Variable 2.3 mph - N/A   Mostly Cloudy
6:00 AM 48.2 °F 46.4 °F 93% 29.82 in 9.0 mi Variable 2.3 mph - N/A   Mostly Cloudy
7:00 AM 48.2 °F 46.4 °F 93% 29.83 in 9.0 mi Variable 2.3 mph - N/A   Partly Cloudy
8:00 AM 46.4 °F 44.6 °F 93% 29.83 in 9.0 mi Variable 2.3 mph - N/A   Clear
10:00 AM 59.0 °F 50.0 °F 72% 29.83 in 9.0 mi South 4.6 mph - N/A   Overcast
11:00 AM 60 °F 49 °F 59% 29.83 in 10 mi SE 5.8 mph - -  
11:00 AM 60.8 °F 50.0 °F 68% 29.83 in 9.0 mi SSE 5.8 mph - N/A   Partly Cloudy
12:00 PM 64.4 °F 50.0 °F 59% 29.79 in 9.0 mi South 4.6 mph - N/A   Clear
1:00 PM 66.2 °F 48.2 °F 52% 29.75 in 9.0 mi WSW 6.9 mph - N/A   Clear
2:00 PM 66.2 °F 48.2 °F 52% 29.73 in 9.0 mi SSW 6.9 mph - N/A   Clear
3:00 PM 64.4 °F 48.2 °F 56% 29.68 in 9.0 mi ESE 3.5 mph - N/A   Mostly Cloudy
4:00 PM 64.4 °F 46.4 °F 52% 29.62 in 9.0 mi Variable 2.3 mph - N/A   Mostly Cloudy
5:00 PM 62 °F 47 °F 47% 29.60 in 10 mi ESE 5.8 mph - -   Overcast
5:00 PM 62.6 °F 46.4 °F 55% 29.60 in 9.0 mi ESE 5.8 mph - N/A   Overcast
6:00 PM 64.4 °F 44.6 °F 49% 29.57 in 9.0 mi South 15.0 mph 21.9 mph N/A   Overcast
6:05 PM 62.6 °F 44.6 °F 52% 29.58 in 9.0 mi South 21.9 mph 29.9 mph N/A Rain Light Rain
6:28 PM 62.6 °F 44.6 °F 52% 29.58 in 9.0 mi South 15.0 mph 26.5 mph N/A   Overcast
6:36 PM 60.8 °F 46.4 °F 59% 29.58 in 9.0 mi South 13.8 mph 20.7 mph N/A Rain Light Rain
7:00 PM 57.2 °F 48.2 °F 72% 29.60 in 7.0 mi SSE 9.2 mph 17.3 mph N/A Rain Light Rain
7:01 PM 57.2 °F 48.2 °F 72% 29.60 in 5.0 mi South 8.1 mph 17.3 mph N/A Rain Light Rain
7:26 PM 55.4 °F 50.0 °F 82% 29.59 in 6.0 mi South 5.8 mph - N/A Rain Rain
7:58 PM 55.4 °F 50.0 °F 82% 29.57 in 9.0 mi South 6.9 mph - N/A   Overcast
8:00 PM 55.4 °F 50.0 °F 82% 29.57 in 9.0 mi SSW 6.9 mph - N/A   Overcast
8:08 PM 55.4 °F 48.2 °F 77% 29.56 in 9.0 mi SSE 4.6 mph - N/A Rain Light Rain
8:22 PM 55.4 °F 48.2 °F 77% 29.54 in 9.0 mi Variable 2.3 mph - N/A   Overcast
8:31 PM 57.2 °F 46.4 °F 67% 29.54 in 9.0 mi South 18.4 mph 26.5 mph N/A Rain Light Rain
9:00 PM 57.2 °F 48.2 °F 72% 29.52 in 9.0 mi SW 6.9 mph - N/A Rain Light Rain
9:31 PM 55.4 °F 50.0 °F 82% 29.50 in 9.0 mi Variable 3.5 mph - N/A   Overcast
10:00 PM 53.6 °F 50.0 °F 88% 29.48 in 9.0 mi North 4.6 mph - N/A   Overcast
11:00 PM 54 °F 51 °F 86% 29.43 in 10 mi North 6.9 mph - -   Clear
11:00 PM 55.4 °F 51.8 °F 88% 29.43 in 9.0 mi Variable 9.2 mph - N/A   Overcast
11:27 PM 55.4 °F 50.0 °F 82% 29.43 in 9.0 mi ESE 4.6 mph - N/A Rain Light Rain